Regional Weather Roundup
Issued by NWS

Home | Current Version | Previous Version | Text Only | Print | Product List | Glossary On
Versions: 1 2 3 4 5 6 7 8 9 10 11 12 13 14 15 16 17 18 19 20 21 22 23 24 25 26 27 28 29 30 31 32 33 34 35 36 37 38 39 40 41 42 43 44 45 46 47 48 49 50
000
ASUS43 KDTX 241910
RWRMI
MICHIGAN HOURLY REGIONAL WEATHER ROUNDUP
NATIONAL WEATHER SERVICE DETROIT/PONTIAC MI
300 PM EDT FRI OCT 24 2014

NOTE: "FAIR" INDICATES FEW OR NO CLOUDS BELOW 12,000 FEET WITH NO
SIGNIFICANT WEATHER AND/OR OBSTRUCTION TO VISIBILITY.

MIZ047>049-052>055-059>063-066>070-074>076-081>083-242000-
SOUTHEAST LOWER MICHIGAN

CITY           SKY/WX    TMP DP  RH WIND       PRES   REMARKS
ADRIAN         CLOUDY    56  44  64 VRB6      30.03F
ALMA           CLOUDY    60  49  67 W5        29.97F
ANN ARBOR      CLOUDY    59  42  53 SW9       30.00F
BAD AXE        PTSUNNY   60  48  64 SW8       29.97F
DETROIT CITY   CLOUDY    62  42  47 W8        30.00F
DETROIT        CLOUDY    60  43  53 SW9       30.01F
FLINT          PTSUNNY   61  47  59 S12       29.97F
GROSSE ILE     CLOUDY    57  48  72 S8        30.00F
HILLSDALE      CLOUDY    58  46  66 S5        30.00F
HOWELL         MOSUNNY   59  46  61 SW7       29.98F

CITY           SKY/WX    TMP DP  RH WIND       PRES   REMARKS
JACKSON        CLOUDY    59  47  64 S7        29.99F
LAMBERTVILLE   CLOUDY    61  43  51 SW7       30.03S
LANSING        CLOUDY    60  48  64 SW8       29.99F
LAPEER         NOT AVBL
MASON          CLOUDY    59  48  67 SW7       29.98F
MONROE         CLOUDY    61  45  55 W10       30.01S
MT. CLEMENS    CLOUDY    60  42  51 SW7       29.97F
PONTIAC        PTSUNNY   57  42  57 SW9       29.98F
PORT HOPE        N/A     57  45  64 SW3       29.96F
PORT HURON     CLOUDY    59  43  55 SW6       29.99F
TRI CITIES     PTSUNNY   61  49  64 SW10      29.97F
YPSILANTI      CLOUDY    64  43  46 SW9       30.01F
$$
MIZ043>046-050>051-056>058-064>065-071>073-077>080-242000-
SOUTHWEST LOWER MICHIGAN

CITY           SKY/WX    TMP DP  RH WIND       PRES   REMARKS
BATTLE CREEK   PTSUNNY   61  46  57 W9        30.00F
BENTON HARBOR  MOSUNNY   57  49  74 W9        30.01F
BIG RAPIDS     CLOUDY    54  53  98 W7        29.98F
COLDWATER      MOSUNNY   60  49  66 S5        29.99F
HOLLAND        CLOUDY    59  50  72 W8        30.01F
GRAND RAPIDS   CLOUDY    60  50  69 W10       29.99F
KALAMAZOO      PTSUNNY   62  47  57 SW12      30.00F
MARSHALL       CLOUDY    60  48  66 SW10      29.99F
MUSKEGON       CLOUDY    55  49  80 SW8       30.01F
$$
MIZ016>042-242000-
NORTHERN LOWER MICHIGAN

CITY           SKY/WX    TMP DP  RH WIND       PRES   REMARKS
ALPENA         CLOUDY    56  46  69 SW3       29.94S
BEAVER ISLAND  CLOUDY    53  48  83 SW10      29.94F
BELLAIRE       CLOUDY    54  48  82 SW3       29.96F
CADILLAC       CLOUDY    51  49  95 SW9       29.96F
CHARLEVOIX     CLOUDY    54  50  88 W6        29.98F
FRANKFORT      CLOUDY    52  48  85 SW7       29.97F
GAYLORD        CLOUDY    52  47  83 W8        29.95F
GRAYLING       CLOUDY    54  49  84 SW6       29.96F
HARBOR SPRINGS CLOUDY    54  49  85 W7        29.94F
HOUGHTON LAKE  CLOUDY    51  48  89 W8        29.97F
OSCODA         CLOUDY    56  47  72 W9        29.95F
PELLSTON       CLOUDY    55  48  77 W8        29.94F
TRAVERSE CITY  CLOUDY    54  48  80 SW8       29.95F
$$
MIZ007>008-015-242000-
EASTERN UPPER MICHIGAN

CITY           SKY/WX    TMP DP  RH WIND       PRES   REMARKS
KINROSS        CLOUDY    52  50  93 SW6       29.92F
MACKINAC ISLAN CLOUDY    52  50  92 SW12G18   29.93F
NEWBERRY       CLOUDY    50  47  91 SW15      29.91F
S. S. MARIE    CLOUDY    52  48  86 CALM      29.92F
$$
MIZ004>006-011>014-085-242000-
CENTRAL UPPER MICHIGAN

CITY           SKY/WX    TMP DP  RH WIND       PRES   REMARKS
MANISTIQUE     CLOUDY    49  47  95 S9G17     29.92F
ESCANABA       CLOUDY    48  45  87 S6        29.92F
MENOMINEE      CLOUDY    50  46  87 W7        29.92F
SAWYER-GWINN   SUNNY     54  48  82 S8        29.88F
$$
MIZ001>003-009>011-084-242000-
WESTERN UPPER MICHIGAN

CITY           SKY/WX    TMP DP  RH WIND       PRES   REMARKS
IRON MOUNTAIN  MOSUNNY   57  48  72 SE6       29.88F
HOUGHTON       PTSUNNY   59  46  62 S7        29.82F
COPPER HARBOR    N/A     50  45  83 SW12      29.80F
IRONWOOD       SUNNY     64  45  48 SW12G24   29.79F
$$

ABBREVIATIONS USED IN REMARKS
   TC - TEMPERATURE IN CELSIUS
  WCI - WIND CHILL INDEX
   HX - HEAT INDEX
  VSB - VISIBILITY




USA.gov is the U.S. government's official web portal to all federal, state and local government web resources and services.